Weather History for KDXX - October, 2013

Change the Weather History Date:

Wednesday, October 9, 2013

  Actual Average (KAQP) Record (KAQP)
Temperature  
Mean Temperature 68 °F -  
Max Temperature 78 °F 59 °F 84 °F (1999)
Min Temperature 57 °F 36 °F 21 °F (2002)
Cooling Degree Days 2    
Growing Degree Days 18 (Base 50)    
Moisture  
Dew Point 49 °F    
Average Humidity 54    
Maximum Humidity 72    
Minimum Humidity 34    
Precipitation  
Precipitation 0.00 in - - ()
Sea Level Pressure  
Sea Level Pressure 29.91 in    
Wind  
Wind Speed 7 mph (SSE)    
Max Wind Speed 12 mph    
Max Gust Speed 18 mph    
Visibility 10 miles    
Events      
Averages and records for this station are not official NWS values.
T = Trace of Precipitation, MM = Missing Value Source: NWS Daily Summary

Daily Weather History Graph

Daily Weather History Graph

Search for Another Location

Airport or City:

Trip Planner

Search our weather history database for the weather conditions in past years. The results will help you decide how hot, cold, wet, or windy it might be!

Date:

Astronomy

Oct. 09, 2013 Rise Set
Actual Time 7:33 AM CDT 6:49 PM CDT
Civil Twilight 7:03 AM CDT 7:19 PM CDT
Nautical Twilight 6:29 AM CDT 7:53 PM CDT
Astronomical Twilight 5:55 AM CDT 8:27 PM CDT
Moon 12:40 PM CDT (10/9) 10:15 PM CDT (10/9)
Length of Visible Light 12h 15m
Length of Day
11h 16m
Waxing Crescent, 25% of the Moon is Illuminated
Oct 9
Waxing Crescent
Oct 11
First Quarter
Oct 18
Full
Oct 26
Last Quarter
Nov 3
New

Hourly Weather History & Observations

Time (CDT) Temp. Dew Point Humidity Pressure Visibility Wind Dir Wind Speed Gust Speed Precip Events Conditions
12:13 AM 69.8 °F 46.4 °F 43% 29.82 in 10.0 mi South 11.5 mph 17.3 mph N/A   Clear
12:34 AM 68.0 °F 46.4 °F 46% 29.82 in 10.0 mi SSW 11.5 mph 17.3 mph N/A   Clear
12:54 AM 68.0 °F 46.4 °F 46% 29.82 in 10.0 mi South 11.5 mph 16.1 mph N/A   Clear
1:13 AM 68.0 °F 46.4 °F 46% 29.83 in 10.0 mi SSW 11.5 mph - N/A   Clear
1:34 AM 68.0 °F 46.4 °F 46% 29.83 in 10.0 mi SSW 10.4 mph 18.4 mph N/A   Clear
1:54 AM 66.2 °F 46.4 °F 49% 29.84 in 10.0 mi SSW 6.9 mph - N/A   Clear
2:13 AM 64.4 °F 46.4 °F 52% 29.85 in 10.0 mi South 5.8 mph - N/A   Clear
2:34 AM 62.6 °F 46.4 °F 55% 29.86 in 10.0 mi South 5.8 mph - N/A   Clear
2:54 AM 64.4 °F 46.4 °F 52% 29.86 in 10.0 mi South 8.1 mph - N/A   Clear
3:14 AM 62.6 °F 46.4 °F 55% 29.86 in 10.0 mi South 5.8 mph - N/A   Clear
3:34 AM 62.6 °F 46.4 °F 55% 29.86 in 10.0 mi South 8.1 mph - N/A   Clear
3:53 AM 60.8 °F 46.4 °F 59% 29.87 in 10.0 mi South 6.9 mph - N/A   Clear
4:14 AM 60.8 °F 46.4 °F 59% 29.87 in 10.0 mi South 6.9 mph - N/A   Clear
4:33 AM 60.8 °F 46.4 °F 59% 29.87 in 10.0 mi South 8.1 mph - N/A   Clear
4:54 AM 60.8 °F 46.4 °F 59% 29.87 in 10.0 mi South 8.1 mph - N/A   Clear
5:14 AM 60.8 °F 46.4 °F 59% 29.88 in 10.0 mi South 5.8 mph - N/A   Clear
5:33 AM 60.8 °F 46.4 °F 59% 29.88 in 10.0 mi SSW 8.1 mph - N/A   Clear
5:54 AM 62.6 °F 48.2 °F 59% 29.88 in 10.0 mi SSW 10.4 mph 16.1 mph N/A   Clear
6:14 AM 60.8 °F 46.4 °F 59% 29.89 in 10.0 mi SSW 9.2 mph - N/A   Clear
6:33 AM 60.8 °F 46.4 °F 59% 29.89 in 10.0 mi SSW 6.9 mph - N/A   Clear
6:54 AM 60.8 °F 46.4 °F 59% 29.89 in 10.0 mi SSW 5.8 mph - N/A   Clear
7:14 AM 60.8 °F 46.4 °F 59% 29.91 in 10.0 mi SSW 3.5 mph - N/A   Clear
7:33 AM 59.0 °F 46.4 °F 63% 29.91 in 10.0 mi Calm Calm - N/A   Clear
7:54 AM 57.2 °F 46.4 °F 67% 29.92 in 10.0 mi SSW 3.5 mph - N/A   Clear
8:14 AM 57.2 °F 46.4 °F 67% 29.93 in 10.0 mi South 3.5 mph - N/A   Clear
8:34 AM 57.2 °F 48.2 °F 72% 29.93 in 10.0 mi SSE 3.5 mph - N/A   Clear
8:54 AM 60.8 °F 48.2 °F 63% 29.94 in 10.0 mi Calm Calm - N/A   Unknown
9:13 AM 62.6 °F 48.2 °F 59% 29.94 in 10.0 mi South 3.5 mph - N/A   Unknown
9:34 AM 64.4 °F 50.0 °F 59% 29.95 in 10.0 mi South 3.5 mph - N/A   Unknown
9:54 AM 64.4 °F 50.0 °F 59% 29.95 in 10.0 mi SW 5.8 mph - N/A   Unknown
10:13 AM 66.2 °F 50.0 °F 56% 29.96 in 10.0 mi WSW 8.1 mph - N/A   Clear
10:34 AM 66.2 °F 50.0 °F 56% 29.96 in 10.0 mi SSW 5.8 mph - N/A   Clear
11:13 AM 69.8 °F 50.0 °F 49% 29.96 in 10.0 mi WNW 5.8 mph - N/A   Clear
11:34 AM 69.8 °F 48.2 °F 46% 29.96 in 10.0 mi Calm Calm - N/A   Clear
11:54 AM 71.6 °F 51.8 °F 50% 29.96 in 10.0 mi Calm Calm - N/A   Clear
12:13 PM 71.6 °F 51.8 °F 50% 29.96 in 10.0 mi SW 4.6 mph - N/A   Clear
12:34 PM 71.6 °F 50.0 °F 46% 29.96 in 10.0 mi Calm Calm - N/A   Clear
12:54 PM 71.6 °F 50.0 °F 46% 29.96 in 10.0 mi Calm Calm - N/A   Clear
1:13 PM 73.4 °F 51.8 °F 47% 29.96 in 10.0 mi ESE 5.8 mph - N/A   Clear
1:34 PM 73.4 °F 51.8 °F 47% 29.96 in 10.0 mi ESE 6.9 mph - N/A   Clear
1:53 PM 73.4 °F 48.2 °F 41% 29.95 in 10.0 mi ESE 4.6 mph - N/A   Clear
2:14 PM 75.2 °F 50.0 °F 41% 29.95 in 7.0 mi South 3.5 mph - N/A   Clear
2:34 PM 75.2 °F 50.0 °F 41% 29.94 in 10.0 mi Calm Calm - N/A   Clear
2:53 PM 75.2 °F 50.0 °F 41% 29.94 in 10.0 mi SE 6.9 mph - N/A   Clear
3:14 PM 75.2 °F 50.0 °F 41% 29.93 in 10.0 mi SSE 5.8 mph - N/A   Clear
3:34 PM 77.0 °F 50.0 °F 39% 29.93 in 10.0 mi SSE 6.9 mph - N/A   Clear
3:53 PM 77.0 °F 50.0 °F 39% 29.93 in 10.0 mi SSE 9.2 mph - N/A   Clear
4:14 PM 77.0 °F 48.2 °F 36% 29.92 in 10.0 mi SE 5.8 mph - N/A   Clear
4:33 PM 78.8 °F 48.2 °F 34% 29.92 in 10.0 mi SSE 8.1 mph - N/A   Clear
4:54 PM 78.8 °F 48.2 °F 34% 29.91 in 10.0 mi SSE 9.2 mph - N/A   Clear
5:14 PM 78.8 °F 48.2 °F 34% 29.92 in 10.0 mi SSE 6.9 mph - N/A   Clear
5:33 PM 78.8 °F 48.2 °F 34% 29.91 in 10.0 mi SSE 8.1 mph - N/A   Clear
5:54 PM 77.0 °F 48.2 °F 36% 29.91 in 10.0 mi SSE 3.5 mph - N/A   Clear
6:14 PM 75.2 °F 48.2 °F 38% 29.91 in 10.0 mi Calm Calm - N/A   Clear
6:33 PM 71.6 °F 51.8 °F 50% 29.90 in 10.0 mi East 3.5 mph - N/A   Clear
6:54 PM 69.8 °F 50.0 °F 49% 29.91 in 10.0 mi ESE 6.9 mph - N/A   Clear
7:14 PM 68.0 °F 51.8 °F 56% 29.91 in 7.0 mi East 5.8 mph - N/A   Clear
7:33 PM 64.4 °F 51.8 °F 64% 29.91 in 10.0 mi East 6.9 mph - N/A   Clear
7:54 PM 64.4 °F 51.8 °F 64% 29.91 in 5.0 mi ESE 8.1 mph - N/A   Haze
8:13 PM 64.4 °F 51.8 °F 64% 29.92 in 10.0 mi SE 6.9 mph - N/A   Clear
8:33 PM 64.4 °F 51.8 °F 64% 29.92 in 10.0 mi SE 6.9 mph - N/A   Clear
8:54 PM 62.6 °F 51.8 °F 68% 29.93 in 10.0 mi SE 8.1 mph - N/A   Clear
9:13 PM 64.4 °F 51.8 °F 64% 29.93 in 7.0 mi SSE 5.8 mph - N/A   Clear
9:33 PM 62.6 °F 51.8 °F 68% 29.93 in 5.0 mi SSE 4.6 mph - N/A   Haze
9:54 PM 60.8 °F 51.8 °F 72% 29.94 in 10.0 mi SSE 6.9 mph - N/A   Clear
10:13 PM 60.8 °F 51.8 °F 72% 29.94 in 7.0 mi SE 6.9 mph - N/A   Clear
10:33 PM 62.6 °F 51.8 °F 68% 29.94 in 10.0 mi SSE 6.9 mph - N/A   Clear
10:54 PM 62.6 °F 51.8 °F 68% 29.94 in 10.0 mi SE 6.9 mph - N/A   Clear
11:13 PM 60.8 °F 51.8 °F 72% 29.94 in 10.0 mi SSE 6.9 mph - N/A   Clear
11:33 PM 60.8 °F 51.8 °F 72% 29.94 in 10.0 mi SSE 6.9 mph - N/A   Clear
11:54 PM 60.8 °F 50.0 °F 68% 29.94 in 10.0 mi SE 6.9 mph - N/A   Clear